| time (UTC) | temp F | wind direction | speed knots | gust knots | rain 1hr in | rain 24hr in | rain mn in | humidity % | barometer mb |
| 20260906070559 | 60 | 149 | 4.3 | 9.6 | 0.00 | 0.00 | 0.00 | 81 | 1021.1 |
| 20260906070104 | 60 | 72 | 4.3 | 10.4 | 0.00 | 0.00 | 0.00 | 82 | 1021.2 |
| 20260906065602 | 59 | 96 | 4.3 | 10.4 | 0.00 | 0.00 | 0.00 | 83 | 1021.2 |
| 20260906065059 | 58 | 144 | 5.2 | 11.3 | 0.00 | 0.00 | 0.00 | 84 | 1021.3 |
| 20260906064606 | 58 | 111 | 4.3 | 11.3 | 0.00 | 0.00 | 0.00 | 84 | 1021.2 |
| 20260906064100 | 57 | 119 | 4.3 | 9.6 | 0.00 | 0.00 | 0.00 | 85 | 1021.1 |
| 20260906063602 | 57 | 137 | 3.5 | 9.6 | 0.00 | 0.00 | 0.00 | 85 | 1021.1 |
| 20260906063104 | 57 | 126 | 3.5 | 9.6 | 0.00 | 0.00 | 0.00 | 85 | 1021.1 |
| 20260906062600 | 57 | 144 | 4.3 | 9.6 | 0.00 | 0.00 | 0.00 | 85 | 1021.3 |
| 20260906062059 | 57 | 138 | 4.3 | 7.0 | 0.00 | 0.00 | 0.00 | 84 | 1021.3 |
| 20260906061607 | 57 | 153 | 3.5 | 8.7 | 0.00 | 0.00 | 0.00 | 84 | 1021.3 |
| 20260906061058 | 57 | 104 | 4.3 | 8.7 | 0.00 | 0.00 | 0.00 | 84 | 1021.4 |
| 20260906060559 | 58 | 140 | 2.6 | 9.6 | 0.00 | 0.00 | 0.00 | 84 | 1021.5 |
| 20260906060106 | 58 | 166 | 2.6 | 9.6 | 0.00 | 0.00 | 0.00 | 84 | 1021.4 |
| 20260906055559 | 58 | 130 | 3.5 | 8.7 | 0.00 | 0.00 | 0.00 | 84 | 1021.5 |
| 20260906055059 | 57 | 115 | 1.7 | 7.0 | 0.00 | 0.00 | 0.00 | 85 | 1021.5 |
| 20260906054608 | 57 | 107 | 1.7 | 8.7 | 0.00 | 0.00 | 0.00 | 85 | 1021.4 |
| 20260906054059 | 57 | 157 | 2.6 | 8.7 | 0.00 | 0.00 | 0.00 | 85 | 1021.7 |
| 20260906053559 | 57 | 131 | 1.7 | 7.0 | 0.00 | 0.00 | 0.00 | 84 | 1021.7 |
| 20260906053105 | 57 | 127 | 2.6 | 7.8 | 0.00 | 0.00 | 0.00 | 84 | 1021.8 |
| 20260906052558 | 57 | 119 | 3.5 | 7.8 | 0.00 | 0.00 | 0.00 | 85 | 1021.7 |
| 20260906052057 | 57 | 134 | 2.6 | 7.8 | 0.00 | 0.00 | 0.00 | 85 | 1021.7 |
| 20260906051614 | 57 | 168 | 3.5 | 8.7 | 0.00 | 0.00 | 0.00 | 85 | 1021.6 |
| 20260906051059 | 57 | 104 | 3.5 | 8.7 | 0.00 | 0.00 | 0.00 | 85 | 1021.8 |
| 20260906050601 | 57 | 146 | 2.6 | 8.7 | 0.00 | 0.00 | 0.00 | 84 | 1021.8 |
| 20260906050105 | 57 | 157 | 3.5 | 7.8 | 0.00 | 0.00 | 0.00 | 84 | 1021.9 |
| 20260906045559 | 57 | 123 | 2.6 | 7.0 | 0.00 | 0.00 | 0.00 | 84 | 1021.8 |
| 20260906045103 | 57 | 115 | 1.7 | 7.0 | 0.00 | 0.00 | 0.00 | 84 | 1021.8 |
| 20260906044610 | 57 | 113 | 1.7 | 7.0 | 0.00 | 0.00 | 0.00 | 84 | 1022.1 |
| 20260906044059 | 57 | 144 | 1.7 | 7.8 | 0.00 | 0.00 | 0.00 | 84 | 1022.1 |
| 20260906043556 | 57 | 129 | 1.7 | 7.8 | 0.00 | 0.00 | 0.00 | 83 | 1022.2 |
| 20260906043104 | 57 | 126 | 1.7 | 6.1 | 0.00 | 0.00 | 0.00 | 83 | 1022.2 |
| 20260906042557 | 58 | 136 | 2.6 | 6.1 | 0.00 | 0.00 | 0.00 | 83 | 1022.3 |
| 20260906042056 | 58 | 123 | 1.7 | 6.1 | 0.00 | 0.00 | 0.00 | 83 | 1022.4 |
| 20260906041605 | 58 | 129 | 1.7 | 7.0 | 0.00 | 0.00 | 0.00 | 83 | 1022.6 |
| 20260906041059 | 58 | 123 | 2.6 | 7.0 | 0.00 | 0.00 | 0.00 | 83 | 1022.4 |
| 20260906040559 | 58 | 97 | 2.6 | 7.8 | 0.00 | 0.00 | 0.00 | 83 | 1022.6 |
| 20260906040140 | 58 | 84 | 1.7 | 7.8 | 0.00 | 0.00 | 0.00 | 83 | 1022.6 |
| 20260906035558 | 58 | 114 | 0.9 | 6.1 | 0.00 | 0.00 | 0.00 | 83 | 1022.7 |
| 20260906035056 | 58 | 132 | 1.7 | 6.1 | 0.00 | 0.00 | 0.00 | 83 | 1022.7 |
| 20260906034620 | 58 | 79 | 1.7 | 6.1 | 0.00 | 0.00 | 0.00 | 84 | 1022.8 |
| 20260906034057 | 58 | 143 | 1.7 | 6.1 | 0.00 | 0.00 | 0.00 | 83 | 1022.8 |
| 20260906033556 | 58 | 157 | 1.7 | 4.3 | 0.00 | 0.00 | 0.00 | 84 | 1022.9 |
| 20260906033108 | 58 | 126 | 0.9 | 5.2 | 0.00 | 0.00 | 0.00 | 84 | 1023.0 |
| 20260906032558 | 58 | 133 | 1.7 | 5.2 | 0.00 | 0.00 | 0.00 | 84 | 1023.3 |
| 20260906032100 | 58 | 99 | 1.7 | 5.2 | 0.00 | 0.00 | 0.00 | 84 | 1023.2 |
| 20260906031607 | 58 | 121 | 1.7 | 5.2 | 0.00 | 0.00 | 0.00 | 84 | 1023.2 |
| 20260906031059 | 58 | 164 | 2.6 | 5.2 | 0.00 | 0.00 | 0.00 | 84 | 1023.4 |
| 20260906030600 | 58 | 153 | 1.7 | 5.2 | 0.00 | 0.00 | 0.00 | 84 | 1023.4 |
| 20260906030108 | 58 | 0 | 0.9 | 5.2 | 0.00 | 0.00 | 0.00 | 84 | 1023.6 |
| 20260906025558 | 58 | 127 | 0.9 | 3.5 | 0.00 | 0.00 | 0.00 | 84 | 1023.5 |
| 20260906025059 | 58 | 113 | 1.7 | 3.5 | 0.00 | 0.00 | 0.00 | 84 | 1023.5 |
| 20260906024615 | 58 | 139 | 1.7 | 5.2 | 0.00 | 0.00 | 0.00 | 84 | 1023.6 |
| 20260906024056 | 58 | 147 | 1.7 | 5.2 | 0.00 | 0.00 | 0.00 | 84 | 1023.5 |
| 20260906023559 | 58 | 158 | 0.9 | 3.5 | 0.00 | 0.00 | 0.00 | 84 | 1023.7 |
| 20260906023106 | 58 | 134 | 0.9 | 3.5 | 0.00 | 0.00 | 0.00 | 84 | 1023.7 |
| 20260906022558 | 58 | 109 | 1.7 | 5.2 | 0.00 | 0.00 | 0.00 | 84 | 1023.7 |
| 20260906022059 | 58 | 150 | 0.9 | 5.2 | 0.00 | 0.00 | 0.00 | 84 | 1023.8 |
| 20260906021620 | 58 | 161 | 0.9 | 4.3 | 0.00 | 0.00 | 0.00 | 84 | 1023.9 |
| 20260906021059 | 58 | 0 | 0.0 | 3.5 | 0.00 | 0.00 | 0.00 | 84 | 1023.8 |
| 20260906020559 | 58 | 0 | 0.0 | 3.5 | 0.00 | 0.00 | 0.00 | 84 | 1023.9 |
| 20260906020106 | 58 | 150 | 0.9 | 3.5 | 0.00 | 0.00 | 0.00 | 84 | 1024.0 |
| 20260906015559 | 58 | 146 | 0.9 | 3.5 | 0.00 | 0.00 | 0.00 | 84 | 1023.9 |
| 20260906015058 | 58 | 146 | 0.9 | 4.3 | 0.00 | 0.00 | 0.00 | 83 | 1023.9 |
| 20260906014603 | 58 | 113 | 0.9 | 4.3 | 0.00 | 0.00 | 0.00 | 82 | 1023.9 |
| 20260906014059 | 58 | 150 | 0.9 | 3.5 | 0.00 | 0.00 | 0.00 | 82 | 1024.0 |
| 20260906013602 | 58 | 167 | 1.7 | 3.5 | 0.00 | 0.00 | 0.00 | 82 | 1023.9 |
| 20260906013122 | 58 | 0 | 0.9 | 3.5 | 0.00 | 0.00 | 0.00 | 81 | 1023.9 |
| 20260906012559 | 58 | 106 | 0.9 | 4.3 | 0.00 | 0.00 | 0.00 | 81 | 1023.9 |
| 20260906012059 | 59 | 142 | 1.7 | 4.3 | 0.00 | 0.00 | 0.00 | 82 | 1023.9 |
| 20260906011608 | 58 | 131 | 1.7 | 4.3 | 0.00 | 0.00 | 0.00 | 81 | 1024.0 |
| 20260906011059 | 58 | 137 | 1.7 | 4.3 | 0.00 | 0.00 | 0.00 | 81 | 1024.2 |
| 20260906010556 | 58 | 0 | 1.7 | 5.2 | 0.00 | 0.00 | 0.00 | 81 | 1024.1 |
| 20260906010106 | 58 | 160 | 1.7 | 5.2 | 0.00 | 0.00 | 0.00 | 81 | 1024.2 |
| 20260906005556 | 58 | 130 | 1.7 | 7.0 | 0.00 | 0.00 | 0.00 | 81 | 1024.3 |
| 20260906005058 | 58 | 138 | 2.6 | 7.0 | 0.00 | 0.00 | 0.00 | 81 | 1024.3 |
| 20260906004607 | 58 | 144 | 1.7 | 6.1 | 0.00 | 0.00 | 0.00 | 82 | 1024.4 |
| 20260906004056 | 58 | 114 | 1.7 | 4.3 | 0.00 | 0.00 | 0.00 | 82 | 1024.4 |
| 20260906003556 | 58 | 132 | 0.9 | 4.3 | 0.00 | 0.00 | 0.00 | 82 | 1024.5 |
| 20260906003102 | 58 | 162 | 1.7 | 3.5 | 0.00 | 0.00 | 0.00 | 82 | 1024.6 |
| 20260906002601 | 58 | 146 | 1.7 | 3.5 | 0.00 | 0.00 | 0.00 | 82 | 1024.7 |
| 20260906002059 | 58 | 131 | 1.7 | 4.3 | 0.00 | 0.00 | 0.00 | 82 | 1024.8 |
| 20260906001610 | 58 | 140 | 1.7 | 4.3 | 0.00 | 0.00 | 0.00 | 82 | 1024.8 |
| 20260906001100 | 58 | 133 | 1.7 | 4.3 | 0.00 | 0.00 | 0.00 | 82 | 1024.9 |
| 20260906000559 | 58 | 135 | 1.7 | 3.5 | 0.00 | 0.00 | 0.00 | 82 | 1024.9 |
| 20260906000108 | 58 | 172 | 0.9 | 3.5 | 0.00 | 0.00 | 0.00 | 82 | 1024.9 |
| 20260905235603 | 58 | 132 | 0.9 | 6.1 | 0.00 | 0.00 | 0.00 | 82 | 1025.1 |
| 20260905235059 | 58 | 161 | 2.6 | 6.1 | 0.00 | 0.00 | 0.00 | 82 | 1025.1 |
| 20260905234603 | 58 | 133 | 1.7 | 5.2 | 0.00 | 0.00 | 0.00 | 82 | 1025.2 |
| 20260905234059 | 58 | 131 | 0.9 | 4.3 | 0.00 | 0.00 | 0.00 | 82 | 1025.3 |
| 20260905233557 | 58 | 69 | 0.9 | 3.5 | 0.00 | 0.00 | 0.00 | 82 | 1025.3 |
| 20260905233104 | 58 | 100 | 1.7 | 3.5 | 0.00 | 0.00 | 0.00 | 81 | 1025.2 |
| 20260905232556 | 58 | 126 | 1.7 | 5.2 | 0.00 | 0.00 | 0.00 | 81 | 1025.3 |
| 20260905232058 | 58 | 132 | 1.7 | 5.2 | 0.00 | 0.00 | 0.00 | 81 | 1025.1 |
| 20260905231608 | 58 | 140 | 2.6 | 6.1 | 0.00 | 0.00 | 0.00 | 81 | 1025.2 |
| 20260905231056 | 58 | 153 | 2.6 | 6.1 | 0.00 | 0.00 | 0.00 | 82 | 1025.1 |
| 20260905230556 | 57 | 152 | 1.7 | 4.3 | 0.00 | 0.00 | 0.00 | 83 | 1025.1 |
| 20260905230109 | 57 | 165 | 0.9 | 2.6 | 0.00 | 0.00 | 0.00 | 84 | 1025.2 |
| 20260905225556 | 57 | 152 | 0.9 | 3.5 | 0.00 | 0.00 | 0.00 | 85 | 1025.2 |
| 20260905225056 | 57 | 123 | 0.9 | 3.5 | 0.00 | 0.00 | 0.00 | 85 | 1025.2 |
| 20260905224619 | 57 | 132 | 0.9 | 1.7 | 0.00 | 0.00 | 0.00 | 85 | 1025.2 |
| 20260905224059 | 57 | 48 | 0.0 | 1.7 | 0.00 | 0.00 | 0.00 | 86 | 1025.2 |
| 20260905223600 | 57 | 48 | 0.9 | 1.7 | 0.00 | 0.00 | 0.00 | 85 | 1025.0 |
| 20260905223118 | 57 | 48 | 0.0 | 0.9 | 0.00 | 0.00 | 0.00 | 85 | 1025.1 |
| 20260905222558 | 57 | 0 | 0.0 | 1.7 | 0.00 | 0.00 | 0.00 | 85 | 1025.1 |
| 20260905222056 | 57 | 0 | 0.0 | 1.7 | 0.00 | 0.00 | 0.00 | 85 | 1025.1 |
| 20260905221606 | 57 | 0 | 0.0 | 1.7 | 0.00 | 0.00 | 0.00 | 85 | 1025.0 |
| 20260905221056 | 57 | 48 | 0.0 | 1.7 | 0.00 | 0.00 | 0.00 | 84 | 1025.1 |
| 20260905220556 | 57 | 48 | 0.9 | 1.7 | 0.00 | 0.00 | 0.00 | 85 | 1025.1 |
| 20260905220103 | 57 | 48 | 0.0 | 1.7 | 0.00 | 0.00 | 0.00 | 84 | 1025.2 |
| 20260905215556 | 57 | 0 | 0.0 | 1.7 | 0.00 | 0.00 | 0.00 | 84 | 1025.3 |
| 20260905215100 | 57 | 48 | 0.0 | 1.7 | 0.00 | 0.00 | 0.00 | 84 | 1025.2 |
| 20260905214604 | 57 | 48 | 0.0 | 1.7 | 0.00 | 0.00 | 0.00 | 84 | 1025.3 |
| 20260905214056 | 57 | 0 | 0.0 | 1.7 | 0.00 | 0.00 | 0.00 | 84 | 1025.4 |
| 20260905213559 | 57 | 48 | 0.9 | 1.7 | 0.00 | 0.00 | 0.00 | 84 | 1025.3 |
| 20260905213107 | 57 | 0 | 0.0 | 0.0 | 0.00 | 0.00 | 0.00 | 84 | 1025.3 |
| 20260905212557 | 57 | 0 | 0.0 | 0.0 | 0.00 | 0.00 | 0.00 | 84 | 1025.5 |
| 20260905212058 | 57 | 0 | 0.0 | 0.0 | 0.00 | 0.00 | 0.00 | 82 | 1025.4 |
| 20260905211604 | 57 | 0 | 0.0 | 0.0 | 0.00 | 0.00 | 0.00 | 81 | 1025.5 |
| 20260905211056 | 57 | 0 | 0.0 | 0.0 | 0.00 | 0.00 | 0.00 | 80 | 1025.4 |
| 20260905210556 | 58 | 0 | 0.0 | 0.0 | 0.00 | 0.00 | 0.00 | 80 | 1025.4 |
| 20260905210107 | 58 | 0 | 0.0 | 0.0 | 0.00 | 0.00 | 0.00 | 81 | 1025.4 |
| 20260905205558 | 58 | 0 | 0.0 | 1.7 | 0.00 | 0.00 | 0.00 | 80 | 1025.3 |
| 20260905205056 | 58 | 0 | 0.0 | 2.6 | 0.00 | 0.00 | 0.00 | 79 | 1025.1 |
| 20260905204606 | 59 | 0 | 0.9 | 2.6 | 0.00 | 0.00 | 0.00 | 79 | 1025.1 |
| 20260905204058 | 59 | 48 | 0.9 | 2.6 | 0.00 | 0.00 | 0.00 | 80 | 1025.1 |
| 20260905203600 | 58 | 273 | 0.9 | 1.7 | 0.00 | 0.00 | 0.00 | 80 | 1025.2 |
| 20260905203105 | 58 | 0 | 0.0 | 1.7 | 0.00 | 0.00 | 0.00 | 80 | 1025.1 |
| 20260905202555 | 58 | 273 | 0.9 | 1.7 | 0.00 | 0.00 | 0.00 | 80 | 1025.1 |
| 20260905202056 | 58 | 273 | 0.0 | 1.7 | 0.00 | 0.00 | 0.00 | 81 | 1025.2 |
| 20260905201610 | 58 | 0 | 0.0 | 0.9 | 0.00 | 0.00 | 0.00 | 80 | 1025.3 |
| 20260905201056 | 58 | 0 | 0.0 | 0.0 | 0.00 | 0.00 | 0.00 | 80 | 1025.2 |
| 20260905200556 | 59 | 0 | 0.0 | 0.9 | 0.00 | 0.00 | 0.00 | 79 | 1025.2 |
| 20260905200109 | 59 | 0 | 0.0 | 0.9 | 0.00 | 0.00 | 0.00 | 78 | 1025.1 |
| 20260905195558 | 59 | 273 | 0.0 | 1.7 | 0.00 | 0.00 | 0.00 | 77 | 1025.2 |
| 20260905195059 | 59 | 0 | 0.9 | 1.7 | 0.00 | 0.00 | 0.00 | 77 | 1025.1 |
| 20260905194608 | 59 | 273 | 0.9 | 1.7 | 0.00 | 0.00 | 0.00 | 77 | 1025.1 |
| 20260905194056 | 59 | 0 | 0.0 | 0.9 | 0.00 | 0.00 | 0.00 | 77 | 1025.1 |
| 20260905193555 | 60 | 273 | 0.0 | 0.9 | 0.00 | 0.00 | 0.00 | 77 | 1025.3 |
| 20260905193104 | 60 | 273 | 0.0 | 1.7 | 0.00 | 0.00 | 0.00 | 76 | 1025.2 |
| 20260905192558 | 60 | 0 | 0.9 | 1.7 | 0.00 | 0.00 | 0.00 | 76 | 1025.1 |
| 20260905192055 | 60 | 273 | 0.0 | 0.9 | 0.00 | 0.00 | 0.00 | 76 | 1025.3 |
| 20260905191609 | 60 | 0 | 0.0 | 1.7 | 0.00 | 0.00 | 0.00 | 76 | 1025.2 |
| 20260905191059 | 60 | 0 | 0.0 | 1.7 | 0.00 | 0.00 | 0.00 | 75 | 1025.1 |
| 20260905190555 | 60 | 273 | 0.0 | 1.7 | 0.00 | 0.00 | 0.00 | 75 | 1025.1 |
| 20260905190105 | 60 | 273 | 0.0 | 1.7 | 0.00 | 0.00 | 0.00 | 75 | 1025.2 |
| 20260905185555 | 60 | 0 | 0.0 | 0.9 | 0.00 | 0.00 | 0.00 | 74 | 1025.2 |
| 20260905185055 | 61 | 0 | 0.0 | 0.9 | 0.00 | 0.00 | 0.00 | 74 | 1025.2 |
| 20260905184609 | 61 | 0 | 0.0 | 0.9 | 0.00 | 0.00 | 0.00 | 74 | 1025.2 |
| 20260905184059 | 61 | 0 | 0.0 | 1.7 | 0.00 | 0.00 | 0.00 | 72 | 1025.1 |
| 20260905183556 | 61 | 0 | 0.0 | 1.7 | 0.00 | 0.00 | 0.00 | 72 | 1025.1 |
| 20260905183109 | 61 | 0 | 0.9 | 2.6 | 0.00 | 0.00 | 0.00 | 71 | 1025.3 |
| 20260905182558 | 62 | 279 | 0.9 | 2.6 | 0.00 | 0.00 | 0.00 | 71 | 1025.1 |
| 20260905182056 | 62 | 279 | 0.9 | 2.6 | 0.00 | 0.00 | 0.00 | 70 | 1025.0 |
| 20260905181604 | 63 | 290 | 0.9 | 3.5 | 0.00 | 0.00 | 0.00 | 69 | 1025.1 |
| 20260905181059 | 63 | 288 | 1.7 | 3.5 | 0.00 | 0.00 | 0.00 | 68 | 1025.0 |
| 20260905180559 | 64 | 290 | 1.7 | 5.2 | 0.00 | 0.00 | 0.00 | 67 | 1025.2 |
| 20260905180106 | 64 | 283 | 1.7 | 5.2 | 0.00 | 0.00 | 0.00 | 66 | 1025.3 |
| 20260905175556 | 65 | 300 | 2.6 | 6.1 | 0.00 | 0.00 | 0.00 | 65 | 1025.4 |
| 20260905175057 | 66 | 300 | 2.6 | 6.1 | 0.00 | 0.00 | 0.00 | 63 | 1025.1 |
| 20260905174603 | 66 | 301 | 2.6 | 7.0 | 0.00 | 0.00 | 0.00 | 62 | 1025.1 |
| 20260905174100 | 67 | 330 | 2.6 | 8.7 | 0.00 | 0.00 | 0.00 | 62 | 1025.1 |
| 20260905173556 | 67 | 295 | 5.2 | 8.7 | 0.00 | 0.00 | 0.00 | 62 | 1025.2 |
| 20260905173131 | 67 | 284 | 3.5 | 8.7 | 0.00 | 0.00 | 0.00 | 62 | 1025.2 |
| 20260905172600 | 67 | 289 | 3.5 | 8.7 | 0.00 | 0.00 | 0.00 | 63 | 1025.2 |
| 20260905172059 | 67 | 292 | 6.1 | 8.7 | 0.00 | 0.00 | 0.00 | 62 | 1025.2 |
| 20260905171604 | 67 | 298 | 5.2 | 8.7 | 0.00 | 0.00 | 0.00 | 62 | 1025.2 |
| 20260905171056 | 67 | 275 | 5.2 | 10.4 | 0.00 | 0.00 | 0.00 | 61 | 1025.3 |
| 20260905170556 | 67 | 294 | 6.1 | 10.4 | 0.00 | 0.00 | 0.00 | 60 | 1025.2 |
| 20260905170113 | 68 | 295 | 5.2 | 11.3 | 0.00 | 0.00 | 0.00 | 60 | 1025.1 |
| 20260905165555 | 68 | 267 | 6.1 | 11.3 | 0.00 | 0.00 | 0.00 | 61 | 1025.0 |
| 20260905165056 | 68 | 323 | 5.2 | 8.7 | 0.00 | 0.00 | 0.00 | 59 | 1024.9 |
| 20260905164610 | 69 | 308 | 3.5 | 7.8 | 0.00 | 0.00 | 0.00 | 60 | 1025.0 |
| 20260905164056 | 69 | 274 | 3.5 | 7.0 | 0.00 | 0.00 | 0.00 | 60 | 1024.9 |
| 20260905163555 | 69 | 317 | 2.6 | 9.6 | 0.00 | 0.00 | 0.00 | 60 | 1024.9 |
| 20260905163122 | 69 | 319 | 4.3 | 9.6 | 0.00 | 0.00 | 0.00 | 60 | 1025.2 |
| 20260905162559 | 68 | 261 | 5.2 | 8.7 | 0.00 | 0.00 | 0.00 | 59 | 1025.1 |
| 20260905162056 | 68 | 290 | 3.5 | 7.8 | 0.00 | 0.00 | 0.00 | 59 | 1025.1 |
| 20260905161615 | 69 | 294 | 3.5 | 8.7 | 0.00 | 0.00 | 0.00 | 57 | 1025.2 |
| 20260905161056 | 69 | 318 | 4.3 | 8.7 | 0.00 | 0.00 | 0.00 | 58 | 1025.1 |
| 20260905160556 | 69 | 285 | 4.3 | 9.6 | 0.00 | 0.00 | 0.00 | 58 | 1025.2 |
| 20260905160101 | 69 | 299 | 3.5 | 10.4 | 0.00 | 0.00 | 0.00 | 59 | 1025.1 |
| 20260905155556 | 69 | 286 | 6.1 | 11.3 | 0.00 | 0.00 | 0.00 | 57 | 1025.2 |
| 20260905155058 | 69 | 321 | 5.2 | 11.3 | 0.00 | 0.00 | 0.00 | 59 | 1025.1 |
| 20260905154616 | 69 | 288 | 4.3 | 9.6 | 0.00 | 0.00 | 0.00 | 58 | 1025.2 |
| 20260905154102 | 69 | 282 | 5.2 | 9.6 | 0.00 | 0.00 | 0.00 | 57 | 1025.2 |
| 20260905153558 | 69 | 321 | 4.3 | 9.6 | 0.00 | 0.00 | 0.00 | 56 | 1025.1 |
| 20260905153102 | 69 | 308 | 5.2 | 12.2 | 0.00 | 0.00 | 0.00 | 58 | 1025.2 |
| 20260905152558 | 69 | 332 | 5.2 | 12.2 | 0.00 | 0.00 | 0.00 | 59 | 1025.4 |
| 20260905152058 | 69 | 275 | 5.2 | 12.2 | 0.00 | 0.00 | 0.00 | 58 | 1025.4 |
| 20260905151603 | 69 | 317 | 6.1 | 10.4 | 0.00 | 0.00 | 0.00 | 58 | 1025.3 |
| 20260905151059 | 69 | 333 | 4.3 | 10.4 | 0.00 | 0.00 | 0.00 | 58 | 1025.4 |
| 20260905150558 | 69 | 252 | 3.5 | 12.2 | 0.00 | 0.00 | 0.00 | 59 | 1025.3 |
| 20260905150109 | 69 | 290 | 6.1 | 12.2 | 0.00 | 0.00 | 0.00 | 57 | 1025.4 |
| 20260905145559 | 70 | 286 | 5.2 | 11.3 | 0.00 | 0.00 | 0.00 | 57 | 1025.4 |
| 20260905145058 | 70 | 289 | 4.3 | 10.4 | 0.00 | 0.00 | 0.00 | 58 | 1025.5 |
| 20260905144605 | 69 | 325 | 7.0 | 12.2 | 0.00 | 0.00 | 0.00 | 59 | 1025.6 |
| 20260905144058 | 70 | 291 | 4.3 | 12.2 | 0.00 | 0.00 | 0.00 | 57 | 1025.5 |
| 20260905143558 | 69 | 289 | 5.2 | 12.2 | 0.00 | 0.00 | 0.00 | 59 | 1025.7 |
| 20260905143110 | 69 | 286 | 6.1 | 13.0 | 0.00 | 0.00 | 0.00 | 60 | 1025.7 |
| 20260905142600 | 69 | 272 | 6.1 | 13.0 | 0.00 | 0.00 | 0.00 | 57 | 1025.7 |
| 20260905142058 | 69 | 294 | 7.8 | 13.0 | 0.00 | 0.00 | 0.00 | 58 | 1025.6 |
| 20260905141606 | 69 | 296 | 7.8 | 13.0 | 0.00 | 0.00 | 0.00 | 59 | 1025.7 |
| 20260905141058 | 69 | 261 | 4.3 | 11.3 | 0.00 | 0.00 | 0.00 | 56 | 1025.6 |
| 20260905140558 | 69 | 344 | 4.3 | 13.9 | 0.00 | 0.00 | 0.00 | 59 | 1025.7 |
| 20260905140105 | 69 | 360 | 4.3 | 13.9 | 0.00 | 0.00 | 0.00 | 58 | 1025.8 |
| 20260905135558 | 70 | 295 | 7.8 | 13.9 | 0.00 | 0.00 | 0.00 | 57 | 1025.8 |
| 20260905135102 | 70 | 331 | 4.3 | 11.3 | 0.00 | 0.00 | 0.00 | 59 | 1025.8 |
| 20260905134605 | 69 | 300 | 6.1 | 13.0 | 0.00 | 0.00 | 0.00 | 58 | 1025.8 |
| 20260905134058 | 70 | 271 | 4.3 | 13.0 | 0.00 | 0.00 | 0.00 | 59 | 1025.8 |
| 20260905133558 | 70 | 290 | 7.0 | 10.4 | 0.00 | 0.00 | 0.00 | 59 | 1025.9 |
| 20260905133106 | 69 | 294 | 6.1 | 11.3 | 0.00 | 0.00 | 0.00 | 57 | 1026.0 |
| 20260905132558 | 69 | 309 | 5.2 | 13.0 | 0.00 | 0.00 | 0.00 | 58 | 1025.8 |
| 20260905132059 | 69 | 321 | 5.2 | 13.0 | 0.00 | 0.00 | 0.00 | 59 | 1025.8 |
| 20260905131604 | 69 | 342 | 7.8 | 13.0 | 0.00 | 0.00 | 0.00 | 57 | 1025.8 |
| 20260905131103 | 70 | 258 | 7.0 | 12.2 | 0.00 | 0.00 | 0.00 | 59 | 1025.6 |
| 20260905130559 | 69 | 304 | 5.2 | 12.2 | 0.00 | 0.00 | 0.00 | 60 | 1025.7 |
| 20260905130104 | 69 | 299 | 6.1 | 12.2 | 0.00 | 0.00 | 0.00 | 59 | 1025.6 |
| 20260905125558 | 68 | 360 | 6.1 | 12.2 | 0.00 | 0.00 | 0.00 | 60 | 1025.6 |
| 20260905125058 | 68 | 266 | 7.0 | 12.2 | 0.00 | 0.00 | 0.00 | 60 | 1025.6 |
| 20260905124605 | 68 | 315 | 6.1 | 12.2 | 0.00 | 0.00 | 0.00 | 60 | 1025.6 |
| 20260905124059 | 68 | 313 | 4.3 | 12.2 | 0.00 | 0.00 | 0.00 | 62 | 1025.5 |
| 20260905123558 | 68 | 298 | 8.7 | 12.2 | 0.00 | 0.00 | 0.00 | 60 | 1025.6 |
| 20260905123110 | 69 | 304 | 6.1 | 11.3 | 0.00 | 0.00 | 0.00 | 59 | 1025.7 |
| 20260905122559 | 69 | 294 | 5.2 | 11.3 | 0.00 | 0.00 | 0.00 | 60 | 1025.6 |
| 20260905122059 | 69 | 289 | 7.0 | 11.3 | 0.00 | 0.00 | 0.00 | 59 | 1025.7 |
| 20260905121606 | 68 | 328 | 5.2 | 11.3 | 0.00 | 0.00 | 0.00 | 60 | 1025.5 |
| 20260905121059 | 67 | 300 | 4.3 | 11.3 | 0.00 | 0.00 | 0.00 | 60 | 1025.5 |
| 20260905120559 | 68 | 248 | 5.2 | 13.0 | 0.00 | 0.00 | 0.00 | 59 | 1025.5 |
| 20260905120106 | 68 | 312 | 6.1 | 13.0 | 0.00 | 0.00 | 0.00 | 59 | 1025.6 |
| 20260905115558 | 68 | 300 | 7.8 | 13.0 | 0.00 | 0.00 | 0.00 | 59 | 1025.5 |
| 20260905115058 | 67 | 319 | 7.0 | 11.3 | 0.00 | 0.00 | 0.00 | 59 | 1025.4 |
| 20260905114606 | 67 | 327 | 5.2 | 11.3 | 0.00 | 0.00 | 0.00 | 59 | 1025.4 |
| 20260905114058 | 68 | 300 | 6.1 | 11.3 | 0.00 | 0.00 | 0.00 | 60 | 1025.6 |
| 20260905113559 | 67 | 291 | 6.1 | 13.0 | 0.00 | 0.00 | 0.00 | 60 | 1025.5 |
| 20260905113100 | 68 | 302 | 7.8 | 13.0 | 0.00 | 0.00 | 0.00 | 58 | 1025.3 |
| 20260905112559 | 67 | 325 | 7.0 | 12.2 | 0.00 | 0.00 | 0.00 | 59 | 1025.2 |
| 20260905112100 | 68 | 315 | 5.2 | 12.2 | 0.00 | 0.00 | 0.00 | 58 | 1025.2 |
| 20260905111605 | 68 | 351 | 6.1 | 13.0 | 0.00 | 0.00 | 0.00 | 59 | 1025.3 |
| 20260905111059 | 68 | 277 | 7.8 | 13.0 | 0.00 | 0.00 | 0.00 | 58 | 1025.2 |
| 20260905110600 | 68 | 315 | 3.5 | 10.4 | 0.00 | 0.00 | 0.00 | 61 | 1025.2 |
| 20260905110104 | 67 | 267 | 6.1 | 10.4 | 0.00 | 0.00 | 0.00 | 59 | 1025.4 |
| 20260905105559 | 68 | 301 | 4.3 | 10.4 | 0.00 | 0.00 | 0.00 | 59 | 1025.5 |
| 20260905105101 | 67 | 291 | 5.2 | 10.4 | 0.00 | 0.00 | 0.00 | 59 | 1025.5 |
| 20260905104603 | 67 | 314 | 3.5 | 10.4 | 0.00 | 0.00 | 0.00 | 59 | 1025.5 |
| 20260905104059 | 66 | 300 | 4.3 | 10.4 | 0.00 | 0.00 | 0.00 | 62 | 1025.4 |
| 20260905103558 | 65 | 296 | 4.3 | 10.4 | 0.00 | 0.00 | 0.00 | 63 | 1025.5 |
| 20260905103106 | 65 | 284 | 6.1 | 10.4 | 0.00 | 0.00 | 0.00 | 62 | 1025.4 |
| 20260905102557 | 65 | 339 | 6.1 | 10.4 | 0.00 | 0.00 | 0.00 | 61 | 1025.5 |
| 20260905102059 | 65 | 290 | 5.2 | 11.3 | 0.00 | 0.00 | 0.00 | 62 | 1025.5 |
| 20260905101609 | 66 | 284 | 6.1 | 11.3 | 0.00 | 0.00 | 0.00 | 62 | 1025.3 |
| 20260905101100 | 66 | 319 | 4.3 | 11.3 | 0.00 | 0.00 | 0.00 | 61 | 1025.3 |
| 20260905100558 | 66 | 298 | 5.2 | 11.3 | 0.00 | 0.00 | 0.00 | 62 | 1025.3 |
| 20260905100124 | 66 | 296 | 3.5 | 10.4 | 0.00 | 0.00 | 0.00 | 63 | 1025.3 |
| 20260905095558 | 65 | 276 | 4.3 | 10.4 | 0.00 | 0.00 | 0.00 | 63 | 1025.3 |
| 20260905095058 | 65 | 290 | 4.3 | 10.4 | 0.00 | 0.00 | 0.00 | 63 | 1025.3 |
| 20260905094607 | 65 | 340 | 5.2 | 10.4 | 0.00 | 0.00 | 0.00 | 62 | 1025.3 |
| 20260905094058 | 66 | 317 | 5.2 | 10.4 | 0.00 | 0.00 | 0.00 | 62 | 1025.1 |
| 20260905093558 | 66 | 5 | 5.2 | 9.6 | 0.00 | 0.00 | 0.00 | 61 | 1025.0 |
| 20260905093101 | 65 | 328 | 5.2 | 9.6 | 0.00 | 0.00 | 0.00 | 61 | 1025.0 |
| 20260905092601 | 65 | 352 | 5.2 | 9.6 | 0.00 | 0.00 | 0.00 | 64 | 1025.0 |
| 20260905092057 | 64 | 309 | 5.2 | 9.6 | 0.00 | 0.00 | 0.00 | 64 | 1024.9 |
| 20260905091614 | 64 | 327 | 4.3 | 9.6 | 0.00 | 0.00 | 0.00 | 63 | 1024.9 |
| 20260905091100 | 64 | 313 | 4.3 | 10.4 | 0.00 | 0.00 | 0.00 | 64 | 1024.7 |
| 20260905090601 | 64 | 327 | 6.1 | 10.4 | 0.00 | 0.00 | 0.00 | 62 | 1024.7 |
| 20260905085601 | 65 | 300 | 6.1 | 11.3 | 0.00 | 0.00 | 0.00 | 63 | 1024.5 |
| 20260905085059 | 65 | 314 | 5.2 | 11.3 | 0.00 | 0.00 | 0.00 | 64 | 1024.7 |
| 20260905084603 | 64 | 343 | 4.3 | 10.4 | 0.00 | 0.00 | 0.00 | 67 | 1024.5 |
| 20260905084058 | 64 | 322 | 6.1 | 10.4 | 0.00 | 0.00 | 0.00 | 67 | 1024.5 |
| 20260905083558 | 63 | 321 | 5.2 | 10.4 | 0.00 | 0.00 | 0.00 | 68 | 1024.4 |
| 20260905083124 | 63 | 336 | 6.1 | 10.4 | 0.00 | 0.00 | 0.00 | 68 | 1024.5 |
| 20260905082559 | 63 | 302 | 4.3 | 11.3 | 0.00 | 0.00 | 0.00 | 69 | 1024.4 |
| 20260905082059 | 63 | 305 | 5.2 | 11.3 | 0.00 | 0.00 | 0.00 | 69 | 1024.3 |
| 20260905081619 | 62 | 323 | 5.2 | 11.3 | 0.00 | 0.00 | 0.00 | 69 | 1024.3 |
| 20260905081100 | 62 | 334 | 5.2 | 11.3 | 0.00 | 0.00 | 0.00 | 70 | 1024.3 |
| 20260905080558 | 62 | 323 | 5.2 | 9.6 | 0.00 | 0.00 | 0.00 | 70 | 1024.3 |
| 20260905080104 | 62 | 338 | 4.3 | 7.8 | 0.00 | 0.00 | 0.00 | 71 | 1024.2 |
| 20260905075559 | 62 | 321 | 4.3 | 10.4 | 0.00 | 0.02 | 0.00 | 71 | 1024.1 |
| 20260905075059 | 62 | 346 | 4.3 | 10.4 | 0.00 | 0.02 | 0.00 | 70 | 1024.0 |
| 20260905074602 | 63 | 360 | 6.1 | 10.4 | 0.00 | 0.02 | 0.00 | 70 | 1024.0 |
| 20260905074058 | 63 | 300 | 5.2 | 10.4 | 0.00 | 0.02 | 0.00 | 70 | 1024.0 |
| 20260905073558 | 63 | 329 | 4.3 | 9.6 | 0.00 | 0.02 | 0.00 | 70 | 1024.0 |
| 20260905073101 | 62 | 288 | 4.3 | 9.6 | 0.00 | 0.02 | 0.00 | 71 | 1024.0 |
| 20260905072602 | 62 | 313 | 3.5 | 8.7 | 0.00 | 0.02 | 0.00 | 71 | 1023.9 |
| 20260905072101 | 62 | 315 | 3.5 | 7.8 | 0.00 | 0.02 | 0.00 | 72 | 1023.8 |
| 20260905071615 | 61 | 338 | 3.5 | 7.8 | 0.00 | 0.02 | 0.00 | 73 | 1023.8 |
| 20260905071059 | 61 | 298 | 3.5 | 8.7 | 0.00 | 0.02 | 0.00 | 73 | 1023.7 |